Weather History for Curacao, Curacao

Change the Weather History Date:

Tuesday, April 23, 2013

  Actual Average Record
Temperature  
Mean Temperature 81 °F -  
Max Temperature 86 °F 88 °F 89 °F (1998)
Min Temperature 76 °F 77 °F 76 °F (2013)
Cooling Degree Days 16    
Growing Degree Days 31 (Base 50)    
Moisture  
Dew Point 74 °F    
Average Humidity 79    
Maximum Humidity 89    
Minimum Humidity 66    
Precipitation  
Precipitation 0.02 in 0.03 in - ()
Sea Level Pressure  
Sea Level Pressure 29.90 in    
Wind  
Wind Speed 8 mph ()    
Max Wind Speed 13 mph    
Max Gust Speed -    
Visibility 6.2 miles    
Events Rain    
Averages and records for this station are not official NWS values.
T = Trace of Precipitation, MM = Missing Value Source: Averaged Metar Reports

Daily Weather History Graph

Daily Weather History Graph

Search for Another Location

Airport:

Trip Planner

Search our weather history database for the weather conditions in past years. The results will help you decide how hot, cold, wet, or windy it might be!

Date:

Astronomy

Apr. 23, 2013 Rise Set
Actual Time 6:19 AM AST 6:48 PM AST
Civil Twilight 5:57 AM AST 7:10 PM AST
Nautical Twilight 5:32 AM AST 7:36 PM AST
Astronomical Twilight 5:06 AM AST 8:01 PM AST
Moon 4:57 PM AST (4/23) 4:22 AM AST (4/23)
Length of Visible Light 13h 12m
Length of Day
12h 29m
Waxing Gibbous, 94% of the Moon is Illuminated
Apr 23
Waxing Gibbous
Apr 25
Full
May 2
Last Quarter
May 9
New
May 18
First Quarter

Hourly Weather History & Observations

Time (AST) Temp. Heat Index Dew Point Humidity Pressure Visibility Wind Dir Wind Speed Gust Speed Precip Events Conditions
12:00 AM 78.8 °F - 73.4 °F 83% 29.95 in 6.2 mi East 10.4 mph - N/A   Scattered Clouds
1:00 AM 78.8 °F - 73.4 °F 83% 29.92 in 6.2 mi ESE 6.9 mph - N/A   Scattered Clouds
2:00 AM 78 °F - 74 °F 83% 29.90 in 25 mi ESE 6.9 mph - -   Mostly Cloudy
2:00 AM 78.8 °F - 73.4 °F 83% 29.89 in 6.2 mi ESE 6.9 mph - N/A   Mostly Cloudy
3:00 AM 78.8 °F - 73.4 °F 83% 29.86 in 6.2 mi SE 5.8 mph - N/A   Mostly Cloudy
4:00 AM 77.0 °F - 73.4 °F 89% 29.86 in 6.2 mi ESE 5.8 mph - N/A   Partly Cloudy
5:00 AM 77 °F - 74 °F 87% 29.88 in 25 mi SE 4.6 mph - - Rain Light Rain Showers
5:00 AM 77.0 °F - 73.4 °F 89% 29.89 in 6.2 mi SE 4.6 mph - N/A   Mostly Cloudy
6:00 AM 77.0 °F - 73.4 °F 89% 29.89 in 6.2 mi SE 4.6 mph - N/A   Scattered Clouds
7:00 AM 77.0 °F - 73.4 °F 89% 29.89 in 6.2 mi SE 5.8 mph - N/A   Scattered Clouds
8:00 AM 80 °F - 74 °F 78% 29.92 in 31 mi SE 9.2 mph - -   Partly Cloudy
8:00 AM 80.6 °F 86.2 °F 75.2 °F 84% 29.92 in 6.2 mi SE 10.4 mph - N/A   Scattered Clouds
9:00 AM 82.4 °F 88.2 °F 73.4 °F 74% 29.92 in 6.2 mi ESE 10.4 mph - N/A   Scattered Clouds
10:00 AM 82.4 °F 88.2 °F 73.4 °F 74% 29.92 in 6.2 mi East 11.5 mph - N/A   Scattered Clouds
11:00 AM 84 °F - 74 °F 66% 29.94 in 31 mi East 11.5 mph - -   Partly Cloudy
11:00 AM 84.2 °F 92.3 °F 75.2 °F 74% 29.95 in 6.2 mi East 12.7 mph - N/A   Scattered Clouds
12:00 PM 86.0 °F 95.1 °F 75.2 °F 70% 29.92 in 6.2 mi East 10.4 mph - N/A   Scattered Clouds
1:00 PM 84.2 °F 90.9 °F 73.4 °F 70% 29.92 in 6.2 mi East 12.7 mph - N/A   Scattered Clouds
2:00 PM 86.0 °F 95.1 °F 75.2 °F 70% 29.89 in 6.2 mi East 11.5 mph - N/A   Scattered Clouds
3:00 PM 86.0 °F 95.1 °F 75.2 °F 70% 29.86 in 6.2 mi East 9.2 mph - N/A   Scattered Clouds
4:00 PM 84.2 °F 92.3 °F 75.2 °F 74% 29.83 in 6.2 mi East 8.1 mph - N/A   Scattered Clouds
5:00 PM 84.2 °F 92.3 °F 75.2 °F 74% 29.83 in 6.2 mi East 10.4 mph - N/A   Scattered Clouds
6:00 PM 82.4 °F 88.2 °F 73.4 °F 74% 29.83 in 6.2 mi ENE 10.4 mph - N/A   Partly Cloudy
7:00 PM 80.6 °F 86.2 °F 75.2 °F 84% 29.86 in 6.2 mi ENE 11.5 mph - N/A   Partly Cloudy
8:00 PM 80.6 °F 86.2 °F 75.2 °F 84% 29.89 in 6.2 mi ENE 10.4 mph - N/A   Partly Cloudy
9:00 PM 80.6 °F 86.2 °F 75.2 °F 84% 29.89 in 6.2 mi East 11.5 mph - N/A   Partly Cloudy
10:00 PM 80.6 °F 86.2 °F 75.2 °F 84% 29.92 in 6.2 mi East 11.5 mph - N/A   Partly Cloudy
11:00 PM 80 °F - 74 °F 77% 29.94 in 31 mi ESE 11.5 mph - -   Mostly Cloudy
11:00 PM 80.6 °F 85.4 °F 73.4 °F 79% 29.95 in 6.2 mi ESE 11.5 mph - N/A   Mostly Cloudy